Regional Weather Roundup
Issued by NWS Sterling, VA

Home | Current Version | Previous Version | Text Only | Print | Product List | Glossary Off
Versions: 1 2 3 4 5 6 7 8 9 10 11 12 13 14 15 16 17 18 19 20 21 22 23 24 25 26 27 28 29 30 31 32 33 34 35 36 37 38 39 40 41 42 43 44 45 46 47 48 49 50

485
ASUS41 KLWX 232210
RWRLWX

REGIONAL WEATHER ROUNDUP
NATIONAL WEATHER SERVICE BALTIMORE MD/WASHINGTON DC
500 PM EST MON JAN 23 2017

Note: "FAIR" indicates few or no clouds below 12,000 feet
with no significant weather and/or obstructions to visibility.
 TC=TEMPERATURE CELSIUS

 * =Non NWS site. Station does not report precipitation (e.g. rain,
    snow, etc.), thunder, or fog.

DCZ001-MDZ009-015-VAZ040>042-051-053>054-232300-
WASHINGTON METRO

CITY           SKY/WX    TMP DP  RH WIND       PRES   REMARKS
WASHINGTON NAT DRIZZLE   41  40  96 NE18G28   29.50R FOG
DULLES         LGT SNOW  38  36  92 N12       29.50S FOG
ANDREWS AFB    LGT RAIN  40  38  93 NE15G26   29.46R FOG
FT BELVOIR     CLOUDY    41  37  87 N8        29.47F
QUANTICO       CLOUDY    42  41  96 NE17G28   29.47F FOG
COLLEGE PARK*  CLOUDY    37  36  93 NE13G21   29.49F
LEESBURG*      RAIN      37  37 100 N13G18    29.53S
MANASSAS*      LGT RAIN N/A N/A N/A NE17      29.50S VSB 1
GAITHERSBURG*  CLOUDY    37  34  87 NE7       29.54F

$$

MDZ006>007-011-014-232300-
BALTIMORE METRO

CITY           SKY/WX    TMP DP  RH WIND       PRES   REMARKS
BWI AIRPORT    CLOUDY    40  37  89 NE21G32   29.50S
MD SCIENCE CTR   N/A     42  34  73 MISG      29.52S
MARTIN STATE   CLOUDY    41  39  93 NE16G23   29.53R
ANNAPOLIS      CLOUDY    43  38  82 N13G23    29.47S
FORT MEADE*    CLOUDY    37  36  93 NE14G25   29.52R WCI  29

$$

MDZ012-015-019>023-232300-
MARYLAND EASTERN SHORE

CITY           SKY/WX    TMP DP  RH WIND       PRES   REMARKS
OCEAN CITY     CLOUDY    47  47 100 NE17G29   29.35R FOG
SALISBURY      LGT RAIN  46  45  96 NE25G39   29.34S FOG
BAY BRIDGE AP* CLOUDY    43  39  87 NE18G28   29.46F
CAMBRIDGE*     CLOUDY    43  41  93 NE22G33   29.37R
EASTON*        CLOUDY    45  39  81 NE21G31   29.45R

$$

MDZ017>025-232300-
SOUTHERN MARYLAND

CITY           SKY/WX    TMP DP  RH WIND       PRES   REMARKS
PATUXENT RIVER CLOUDY    46  43  89 N16       29.39R
ST INIGOES     CLOUDY    47  44  90 N12G20    29.37R
LEONARDTOWN*   CLOUDY    43  41  93 N8        29.42S

$$

MDZ003>005-232300-
NORTH CENTRAL MARYLAND

CITY           SKY/WX    TMP DP  RH WIND       PRES   REMARKS
FREDERICK*     LGT RAIN  36  36 100 NE12      29.58R WCI  27
HAGERSTOWN APT LGT RAIN  35  32  88 N9        29.56R FOG     WCI  28
WESTMINSTER*   DRIZZLE   36  34  93 E15G25    29.53F WCI  26

$$

MDZ501>502-232300-
WESTERN MARYLAND

CITY           SKY/WX    TMP DP  RH WIND       PRES   REMARKS
OAKLAND*       FOG       30  30 100 E9G17     29.46R VSB 3/4 WCI  22
CUMBERLAND*    CLOUDY    34  34 100 CALM      29.62R

$$

VAZ025>031-232300-
SHENANDOAH VALLEY

CITY           SKY/WX    TMP DP  RH WIND       PRES   REMARKS
WINCHESTER*    DRIZZLE   32  32 100 N8        29.55R WCI  25
FRONT ROYAL*   CLOUDY    32  32 100 N6        29.53R
LURAY*         DRIZZLE   34  34 100 N14G22    29.50R WCI  24
NEW MARKET*    CLOUDY    35  33  94 N12G18    29.50R WCI  27
STAUNTON*      CLOUDY    37  34  92 N13G20    29.49R WCI  28
WAYNESBORO*    CLOUDY    36  35  96 N10G17    29.46R WCI  28

$$

WVZ021-048>050-054>055-232300-
EASTERN WEST VIRGINIA PANHANDLE

CITY           SKY/WX    TMP DP  RH WIND       PRES   REMARKS
MARTINSBURG    MIX PCPN  34  32  92 N10       29.56R FOG     WCI  26
PETERSBURG*    MIX PCPN  37  35  92 CALM      29.56R

$$

VAZ036>039-050-232300-
CENTRAL FOOTHILLS

CITY           SKY/WX    TMP DP  RH WIND       PRES   REMARKS
CHARLOTTESVILL CLOUDY    42  36  79 N14G33    29.45R
CULPEPER*      DRIZZLE   40  39  97 N14       29.49S
ORANGE*        RAIN      37  37 100 N17G23    29.47S WCI  28
GORDONSVILLE*  CLOUDY    39  37  94 N15G25    29.44R FOG
WARRENTON*     RAIN      40  37  87 N10G18    29.48S

$$

VAZ055>057-232300-
NORTH AND CENTRAL PIEDMONT

CITY           SKY/WX    TMP DP  RH WIND       PRES   REMARKS
FREDERICKSBRG* LGT RAIN  42  42 100 N10G18    29.45R
STAFFORD*      DRIZZLE   40  40 100 N13G18    29.49S

$$

NCZ024-NYZ072-PAZ021-071-VAZ022-071-232300-
OTHER REGIONAL OBSERVATIONS

CITY           SKY/WX    TMP DP  RH WIND       PRES   REMARKS
NEW YORK CITY  LGT RAIN  38  33  82 NE23G37   29.67F WCI  27
PHILADELPHIA   HVY RAIN  38  35  89 NE20G33   29.57F FOG     WCI  28
PITTSBURGH     LGT RAIN  39  37  92 E12G22    29.56R
ROANOKE        LGT RAIN  44  39  82 N14       29.44R
RICHMOND       LGT RAIN  46  45  96 N18       29.36R VSB 1
RALEIGH        MOCLDY    58  45  62 VRB5      29.28R

$$

ANZ530>537-232300-
MARINE OBSERVATIONS

STATION/POSITION TIME  TEMP    WIND        PRES
                       AIR SEA DIR/SP/G
                 (UTC) (F)     (DEG/KT/KT) (MB)
THOMAS PT LIGHT  2200   42 40   30/ 24/ 28   N/A
BALT KEY BRIDGE  2142   40      40/ 20/ 24  998.9R
COVE POINT       2142   45      50/ 19/ 23  996.2R
LEWISETTA        2142   46 45   40/ 12/ 19  993.7R
SOLOMONS ISLAND  2142   46 42   20/ 13/ 19   N/A
PINEY POINT      2136           50/ 17/ 20   N/A

$$





USA.gov is the U.S. government's official web portal to all federal, state and local government web resources and services.